Location: ?????
(55.6500°N, 37.2500°E)
Time: 07:35:33
(UTC+00:00)

Meteor 1-13 Rocket - Pass Details

Date: 19 May 2025
Orbit: 829 x 911 km, 81.3° (Epoch: 15 June)

Event Time Altitude Azimuth Distance (km) Brightness Sun altitude
Exits shadow 22:24:23 18° 180° (S) 2,061 5.6 -13.4°
Maximum altitude 22:28:51 72° 100° (E) 957 4.5 -13.3°
Drops below altitude 10° 22:34:48 10° 17° (NNE) 2,612 8.3 -13.0°
Sets 22:37:17 0° 16° (NNE) 3,559 9.6 -12.9°
